• In Netherlands
  • List of Countries
  • For 7 days
  • Water Temperature
  • Satellite Maps
  • Weather Map
  • Weather Widgets
  • user-avatar
    Login

    Hourly Weather Utrecht

    Today, 19 October, Friday

    Time Temperature Precipitation Wind Pressure Humidity
    00:00 +8°C° 0 mm 3 mps 769 mmHg 89%
    01:00 +8°C° 0 mm 3 mps 769 mmHg 90%
    02:00 +8°C° 0 mm 3 mps 768 mmHg 90%
    03:00 +7°C° 0 mm 3 mps 768 mmHg 91%
    04:00 +7°C° 0 mm 3 mps 768 mmHg 92%
    05:00 +7°C° 0 mm 3 mps 768 mmHg 92%
    06:00 +7°C° 0 mm 3 mps 769 mmHg 93%
    07:00 +8°C° 0 mm 3 mps 769 mmHg 88%
    08:00 +9°C° 0 mm 3 mps 769 mmHg 82%
    09:00 +11°C° 0 mm 3 mps 769 mmHg 77%
    10:00 +13°C° 0 mm 2 mps 769 mmHg 72%
    11:00 +15°C° 0 mm 2 mps 769 mmHg 67%
    12:00 +16°C° 0 mm 2 mps 769 mmHg 62%
    13:00 +16°C° 0 mm 2 mps 768 mmHg 62%
    14:00 +16°C° 0 mm 2 mps 768 mmHg 61%
    15:00 +16°C° 0 mm 2 mps 768 mmHg 61%
    16:00 +15°C° 0 mm 2 mps 768 mmHg 67%
    17:00 +13°C° 0 mm 2 mps 769 mmHg 73%
    18:00 +10°C° 0 mm 2 mps 769 mmHg 80%
    19:00 +10°C° 0 mm 2 mps 769 mmHg 82%
    20:00 +9°C° 0 mm 2 mps 770 mmHg 84%
    21:00 +8°C° 0 mm 2 mps 770 mmHg 86%
    22:00 +8°C° 0 mm 2 mps 770 mmHg 86%
    23:00 +7°C° 0 mm 2 mps 771 mmHg 87%

    Tomorrow, 20 October, Saturday

    Time Temperature Precipitation Wind Pressure Humidity
    00:00 +7°C° 0 mm 2 mps 771 mmHg 87%
    01:00 +8°C° 0 mm 1 mps 771 mmHg 88%
    02:00 +7°C° 0 mm 1 mps 771 mmHg 88%
    03:00 +7°C° 0 mm 1 mps 771 mmHg 88%
    04:00 +7°C° 0 mm 1 mps 772 mmHg 88%
    05:00 +7°C° 0 mm 1 mps 772 mmHg 88%
    06:00 +7°C° 0 mm 1 mps 772 mmHg 89%
    07:00 +8°C° 0 mm 1 mps 773 mmHg 81%
    08:00 +10°C° 0 mm 1 mps 773 mmHg 74%
    09:00 +11°C° 0 mm 1 mps 773 mmHg 67%
    10:00 +13°C° 0 mm 1 mps 773 mmHg 61%
    11:00 +14°C° 0 mm 1 mps 773 mmHg 55%
    12:00 +16°C° 0 mm 1 mps 773 mmHg 49%
    13:00 +16°C° 0 mm 1 mps 773 mmHg 50%
    14:00 +16°C° 0 mm 1 mps 773 mmHg 50%
    15:00 +16°C° 0 mm 1 mps 773 mmHg 51%
    16:00 +14°C° 0 mm 1 mps 773 mmHg 57%
    17:00 +12°C° 0 mm 1 mps 773 mmHg 64%
    18:00 +11°C° 0 mm 1 mps 773 mmHg 70%
    19:00 +10°C° 0 mm 1 mps 773 mmHg 72%
    20:00 +10°C° 0 mm 1 mps 773 mmHg 74%
    21:00 +9°C° 0 mm 1 mps 773 mmHg 76%
    22:00 +9°C° 0 mm 1 mps 773 mmHg 76%
    23:00 +9°C° 0 mm 1 mps 773 mmHg 77%

    Day after tomorrow, 21 October, Sunday

    Time Temperature Precipitation Wind Pressure Humidity
    00:00 +8°C° 0 mm 1 mps 773 mmHg 77%
    01:00 +8°C° 0 mm 1 mps 772 mmHg 77%
    02:00 +8°C° 0 mm 1 mps 772 mmHg 78%
    03:00 +8°C° 0 mm 1 mps 772 mmHg 78%
    04:00 +8°C° 0 mm 1 mps 772 mmHg 78%
    05:00 +7°C° 0 mm 1 mps 772 mmHg 78%
    06:00 +6°C° 0 mm 2 mps 771 mmHg 79%
    07:00 +8°C° 0 mm 2 mps 771 mmHg 72%
    08:00 +10°C° 0 mm 2 mps 771 mmHg 65%
    09:00 +12°C° 0 mm 2 mps 771 mmHg 58%
    10:00 +14°C° 0 mm 2 mps 771 mmHg 54%
    11:00 +15°C° 0 mm 2 mps 771 mmHg 50%
    12:00 +17°C° 0 mm 2 mps 770 mmHg 46%
    13:00 +17°C° 0 mm 2 mps 770 mmHg 48%
    14:00 +17°C° 0 mm 2 mps 770 mmHg 49%
    15:00 +17°C° 0 mm 2 mps 769 mmHg 51%
    16:00 +15°C° 0 mm 2 mps 769 mmHg 57%
    17:00 +13°C° 0 mm 2 mps 769 mmHg 62%
    18:00 +12°C° 0 mm 2 mps 769 mmHg 68%
    19:00 +12°C° 0 mm 2 mps 769 mmHg 72%
    20:00 +10°C° 0 mm 2 mps 769 mmHg 76%
    21:00 +10°C° 0 mm 3 mps 769 mmHg 79%
    22:00 +11°C° 0.2 mm 3 mps 770 mmHg 81%
    23:00 +12°C° 0.2 mm 4 mps 770 mmHg 83%

    22 October, Monday

    Time Temperature Precipitation Wind Pressure Humidity
    00:00 +12°C° 0.2 mm 5 mps 770 mmHg 85%
    01:00 +12°C° 0.1 mm 5 mps 770 mmHg 85%
    02:00 +12°C° 0.1 mm 5 mps 770 mmHg 86%
    03:00 +12°C° 0.1 mm 5 mps 771 mmHg 86%
    04:00 +12°C° 0 mm 5 mps 771 mmHg 82%
    05:00 +10°C° 0 mm 5 mps 772 mmHg 78%
    06:00 +10°C° 0 mm 5 mps 772 mmHg 75%
    07:00 +10°C° 0 mm 5 mps 773 mmHg 70%
    08:00 +10°C° 0 mm 5 mps 773 mmHg 65%
    09:00 +12°C° 0 mm 5 mps 774 mmHg 60%
    10:00 +12°C° 0 mm 5 mps 774 mmHg 58%
    11:00 +12°C° 0 mm 5 mps 774 mmHg 57%
    12:00 +12°C° 0 mm 5 mps 774 mmHg 55%
    13:00 +12°C° 0 mm 5 mps 775 mmHg 55%
    14:00 +12°C° 0 mm 5 mps 775 mmHg 55%
    15:00 +12°C° 0 mm 5 mps 775 mmHg 55%
    16:00 +11°C° 0 mm 4 mps 775 mmHg 58%
    17:00 +10°C° 0 mm 4 mps 775 mmHg 62%
    18:00 +9°C° 0 mm 3 mps 775 mmHg 65%
    19:00 +9°C° 0 mm 3 mps 775 mmHg 67%
    20:00 +8°C° 0 mm 3 mps 775 mmHg 70%
    21:00 +8°C° 0 mm 3 mps 775 mmHg 72%
    22:00 +8°C° 0.1 mm 3 mps 774 mmHg 74%
    23:00 +8°C° 0.1 mm 4 mps 774 mmHg 75%

    23 October, Tuesday

    Time Temperature Precipitation Wind Pressure Humidity
    00:00 +8°C° 0.1 mm 4 mps 774 mmHg 76%
    01:00 +8°C° 0.2 mm 4 mps 773 mmHg 79%
    02:00 +10°C° 0.2 mm 4 mps 772 mmHg 82%
    03:00 +9°C° 0.2 mm 5 mps 772 mmHg 85%
    04:00 +10°C° 0.4 mm 5 mps 772 mmHg 86%
    05:00 +10°C° 0.4 mm 5 mps 771 mmHg 88%
    06:00 +10°C° 0.4 mm 5 mps 771 mmHg 89%
    07:00 +12°C° 0.2 mm 5 mps 771 mmHg 87%
    08:00 +11°C° 0.2 mm 6 mps 771 mmHg 85%
    09:00 +13°C° 0.2 mm 6 mps 771 mmHg 83%
    10:00 +13°C° 0.1 mm 6 mps 771 mmHg 78%
    11:00 +14°C° 0.1 mm 6 mps 771 mmHg 74%
    12:00 +14°C° 0.1 mm 7 mps 771 mmHg 70%
    13:00 +14°C° 0.1 mm 6 mps 770 mmHg 72%
    14:00 +14°C° 0.1 mm 6 mps 770 mmHg 74%
    15:00 +13°C° 0.1 mm 6 mps 770 mmHg 76%
    16:00 +13°C° 0 mm 6 mps 770 mmHg 79%
    17:00 +13°C° 0 mm 6 mps 770 mmHg 81%
    18:00 +11°C° 0 mm 6 mps 770 mmHg 83%
    19:00 +11°C° 0 mm 6 mps 770 mmHg 82%
    20:00 +11°C° 0 mm 6 mps 770 mmHg 81%
    21:00 +12°C° 0 mm 5 mps 770 mmHg 80%
    22:00 +11°C° 0 mm 6 mps 770 mmHg 80%
    23:00 +11°C° 0 mm 6 mps 770 mmHg 79%

    24 October, Wednesday

    Time Temperature Precipitation Wind Pressure Humidity
    00:00 +13°C° 0 mm 6 mps 770 mmHg 78%
    01:00 +13°C° 0.1 mm 6 mps 770 mmHg 80%
    02:00 +13°C° 0.1 mm 6 mps 769 mmHg 82%
    03:00 +13°C° 0.1 mm 6 mps 769 mmHg 84%
    04:00 +14°C° 0 mm 6 mps 769 mmHg 85%
    05:00 +14°C° 0 mm 6 mps 769 mmHg 85%
    06:00 +14°C° 0 mm 6 mps 769 mmHg 85%
    07:00 +14°C° 0 mm 6 mps 769 mmHg 85%
    08:00 +15°C° 0 mm 6 mps 770 mmHg 84%
    09:00 +15°C° 0 mm 6 mps 770 mmHg 84%
    10:00 +15°C° 0.1 mm 6 mps 770 mmHg 83%
    11:00 +15°C° 0.1 mm 6 mps 770 mmHg 83%
    12:00 +15°C° 0.1 mm 6 mps 770 mmHg 82%
    13:00 +15°C° 0 mm 6 mps 770 mmHg 82%
    14:00 +15°C° 0 mm 6 mps 770 mmHg 81%
    15:00 +15°C° 0 mm 6 mps 771 mmHg 81%
    16:00 +14°C° 0 mm 5 mps 771 mmHg 82%
    17:00 +14°C° 0 mm 5 mps 771 mmHg 83%
    18:00 +14°C° 0 mm 4 mps 771 mmHg 83%
    19:00 +14°C° 0 mm 4 mps 771 mmHg 83%
    20:00 +14°C° 0 mm 4 mps 772 mmHg 83%
    21:00 +13°C° 0 mm 3 mps 772 mmHg 83%
    22:00 +13°C° 0.1 mm 3 mps 772 mmHg 84%
    23:00 +13°C° 0.1 mm 3 mps 772 mmHg 85%
    Show more